www.pogodaiklimat.ru

Погода и климат >> Архив погоды >> Панама >> Сантьяго


ПОГОДА в Сантьяго

  • Прогноз погоды в Сантьяго
  • Монитор погоды в Сантьяго

АРХИВ ПОГОДЫ в Сантьяго

Время (UTC), дата Ветер
(напр.,м/с)
 
Видим.   Явления Облачность Т
(С)
Тd
(С)
f
(%)
Тe
(С)
Тes
(С)
Комфортность P
(гПа)
Po
(гПа)
Тmin
(С)
Tmax
(С)
R
(мм)
R24
(мм)
S
(см)
12 16.05 штиль 0 20 км 3/3 150 м
[Sc]
+23.8 +23.5 98 +32 +33 очень
душно
1010.6 1000.6 +23.8 +32.2
15 16.05 штиль 0 20 км 9/3 450 м
[Cu med, cong Ac lent]
+28.8 +24.2 76 +40 +44 очень
душно
1011.9 1001.9
18 16.05 штиль 0 20 км 8/8 150 м
[Cu med, cong]
+33.8 +20.6 46 +41 +46 опасность
перегрева
1012.1 1002.1 +23.8 +34.4
21 16.05 С 3 3000 м гроза, ливневой дождь 10/3 400 м
[Cb cap Ac lent]
+23.8 +20.0 79 +29 +30 душно 1010.5 1000.5
00 17.05 штиль 0 8000 м в посл. час гроза {дождь} 10/8 300 м
[Sc diur, vesp Ac und Cs]
+23.6 +21.6 89 +30 +30 очень
душно
1010.7 1000.7 +23.8 +34.8 25
12 17.05 штиль 0 20 км 10/1 150 м
[Cu med, cong Ac lent]
+23.0 +22.7 98 +32 +32 очень
душно
1010.6 1000.6 +22.6 +34.8 0.3
15 17.05 штиль 0 20 км 6/3 450 м
[Cu med, cong Ac lent]
+28.8 +23.6 74 +39 +48 очень
душно
1010.9 1000.9
18 17.05 штиль 0 20 км осадки на расстоянии 8/8 600 м
[Cu med, cong]
+33.2 +24.3 60 +46 +51 опасность
перегрева
1011.0 1001.0 +22.6 +33.4
00 18.05 З 4 20 км осадки на расстоянии 6/6 540 м
[Cu med, cong]
+31.8 +23.3 61 +43 +43 опасность
перегрева
1000.8 1000.8 +22.4 +32.6
12 18.05 штиль 0 15 км 1/1 360 м
[Sc]
+23.2 +22.4 95 +32 +33 очень
душно
1010.8 1000.8 +22.4 +33.8 0.9
15 18.05 штиль 0 20 км 4/4 450 м
[Cu hum]
+29.8 +23.8 70 +41 +52 опасность
перегрева
1011.3 1001.3
21 18.05 СВ 3 н/о позёмок {дождь} 10/4 450 м
[Cu med, cong Ac trans]
+24.0 +22.6 92 +31 +33 очень
душно
1000.1 1000.1
00 19.05 штиль 0 6000 м слаб. дождь {морось} 10/4 300 м
[St Ac lent]
+23.8 +22.9 95 +32 +32 очень
душно
1010.7 1000.7 +22.4 +32.6 12
12 19.05 штиль 0 2000 м дымка {туман} 8/4 120 м
[St Ac trans]
+23.4 +22.9 97 +33 +33 очень
душно
1010.7 1000.7 +22.6 +32.6 0.6
15 19.05 штиль 0 20 км 6/3 300 м
[Cu hum Ac trans]
+28.4 +23.8 76 +39 +49 очень
душно
1011.1 1001.1
18 19.05 СВ 3 20 км 6/6 450 м
[Cu hum]
+32.4 +24.3 62 +45 +51 опасность
перегрева
1010.8 1000.8 +22.6 +32.2
00 20.05 штиль 0 20 км {гроза, дождь} 10/4 300 м
[Cu med, cong As op]
+23.6 +22.2 92 +31 +31 очень
душно
1009.7 999.7 +22.6 +34.0 24
12 20.05 штиль 0 15 км 5/1 240 м
[Sc]
+23.4 +22.9 97 +33 +33 очень
душно
1011.1 1001.1 +22.4 +34.0
15 20.05 штиль 0 20 км 10/4 300 м
[Cu hum Ac trans]
+27.0 +24.3 85 +38 +42 очень
душно
1012.2 1002.2
18 20.05 штиль 0 20 км 8/8 450 м
[Cu med, cong]
+31.4 +23.5 63 +42 +48 опасность
перегрева
1010.9 1000.9 +22.4 +32.2
21 20.05 ЮЗ 3 5000 м осадки на расстоянии 10/6 450 м
[Cu med, cong Ci fib]
+32.2 +24.1 62 +44 +46 опасность
перегрева
1008.8 998.8
00 21.05 штиль 0 20 км 10/4 300 м
[Cu med, cong As op]
+26.2 +24.0 88 +36 +36 очень
душно
1008.8 998.8 +22.4 +33.8
12 21.05 штиль 0 20 км 10/4 150 м
[Sc As op]
+22.8 +22.0 95 +31 +31 очень
душно
1009.8 999.8 +22.8 +33.8 0.4
15 21.05 штиль 0 20 км 10/4 300 м
[Sc As trans]
+25.4 +22.3 83 +33 +38 очень
душно
1010.0 1000.0
18 21.05 ЮЗ 2 15 км осадки на расстоянии 10/6 300 м
[Cb calv Ac cuf]
+28.4 +23.2 73 +38 +43 очень
душно
1010.3 1000.3 +22.8 +30.0
21 21.05 штиль 0 12 км в посл. час дождь 8/8 450 м
[Cu med, cong]
+27.8 +22.8 74 +37 +39 очень
душно
1009.3 999.3
00 22.05 штиль 0 12 км осадки на расстоянии 10/3 300 м
[St Ac lent]
+26.2 +20.5 71 +33 +33 очень
душно
1008.9 998.9 +22.8 +30.7 2
12 22.05 штиль 0 8000 м 10/10 200 м
[Sc diur, vesp Ac cuf]
+24.7 +23.7 94 +34 +34 очень
душно
1009.6 999.6 +24.2 +30.7 0.1
15 22.05 штиль 0 н/о дождь {морось} 10/6 240 м
[Sc diur, vesp As op]
+24.8 +24.2 96 +34 +36 очень
душно
1011.7 1001.7
18 22.05 Ю 2 12 км осадки на расстоянии 10/10 240 м
[]
+26.2 +24.8 92 +37 +37 очень
душно
1011.6 1001.6 +24.2 +26.4 5
21 22.05 Ю 2 12 км осадки на расстоянии 10/4 300 м
[Cu hum Ac lent]
+27.8 +24.0 80 +39 +39 очень
душно
1010.5 1000.5
00 23.05 штиль 0 15 км осадки на расстоянии 10/4 300 м
[Cu hum Ac lent]
+26.2 +23.4 85 +36 +36 очень
душно
1011.1 1001.1 +24.2 +27.2

 

Местоположение метеостанции Сантьяго (Панама): широта 8.08 долгота -80.95 высота над уровнем моря 88 м.

В архиве по умолчанию представлена погода в Сантьяго за последнюю неделю. Архивные данные за месяц целиком и за предыдущие месяцы, начиная с января 2011 года, Вы можете получить, выбрав интересующий диапазон дат из раскрывающегося списка и нажав кнопку "Ввод!".


*Определитесь, кто Вы:
робот инопланетянин человек

Внимание! Время в таблицах - всемирное. Для получения местного времени необходимо прибавить поправку, которая равна -5 ч.

Смотрите также архив погоды в соседних городах и на ближайших метеорологических станциях:

Погода в Давиде (Панама) (165 км)
Погода в Пуэрто-Лимоне (Коста-Рика) (314 км)
Погода в Сан-Хосе аэропорту (Коста-Рика) (408 км)
Погода в Сан-Хосе (Коста-Рика) (416 км)
Погода в Апартадо (Колумбия) (469 км)
Погода на Острове Сан-Андрес (Колумбия) (507 км)
Погода в Блуфилдсе (Никарагуа) (534 км)
Погода в Кибдо (Колумбия) (546 км)
Погода в Либерии (Коста-Рика) (567 км)
Погода в Монтерии (Колумбия) (567 км)

Пояснения к столбцам:

Ветер - указаны скорость ветра в м/с - средняя за 10 мин, порывы в срок и между сроками (в фигурных скобках) и направление, откуда дует ветер: С - северный, СВ - северо-восточный, В - восточный, ЮВ - юго-восточный, Ю - южный, ЮЗ - юго-западный, З - западный, СЗ - северо-западный.
Видимость - горизонтальная дальность видимости в метрах или километрах. При видимости от 1 до 10 км при отсутствии осадков обычно наблюдается дымка, при ухудшении видимости до 1 км и менее - туман. В сухую погоду видимость может ухудшаться дымом, пылью или мглою.
Явления - указаны атмосферные явления, наблюдавшиеся в срок или в последний час перед сроком; фигурными скобками обозначены явления, наблюдавшиеся между сроками (за 1-3 часа до срока); квадратными скобками обозначены град или гололедные отложения с указанием их диаметра в мм.
Облачность - указаны через наклонную черту общая и нижняя облачность в баллах и высота нижней границы облаков в метрах; квадратными скобками обозначены формы облаков: Ci - перистые, Cs - перисто-слоистые, Cc - перисто-кучевые, Ac - высококучевые, As - высокослоистые, Sc - слоисто-кучевые, Ns - слоисто-дождевые, Cu - кучевые, Cb - кучево-дождевые. Подробнее классификацию облаков см. в Атласе облаков (PDF).
T - Температура воздуха - температура, измеренная на высоте 2 м над землей.
Td - Температура точки росы - температура, при понижении до которой содержащийся в воздухе водяной пар достигнет насыщения.
f - Относительная влажность воздуха - влажноcть воздуха, измеренная на высоте 2 м над землей.
Te - Эффективная температура - температура, которую ощущает одетый по сезону человек в тени. Характеристика душности погоды. При расчете учитывается влияние влажности воздуха и скорости ветра на теплоощущения человека.
Tes - Эффективная температура на солнце - температура, которую ощущает человек, с поправкой на солнечный нагрев. Характеристика знойности погоды. Зависит от высоты солнца над горизонтом, облачности и скорости ветра. Ночью, в пасмурную погоду, а также при ветре 12 м/с и более поправка равна нулю.
P - Атмосферное давление - приведенное к уровню моря атмосферное давление.
Po - Атмосферное давление - измеренное на уровне метеостанции атмосферное давление.
Tmin - Минимальная температура - минимум температуры воздуха на высоте 2 м над землей.
Tmax - Максимальная температура - максимум температуры воздуха на высоте 2 м над землей.
R - Количество осадков - Количество выпавших осадков за период времени, мм. При наведении курсора мыши на число - период времени, за который выпало указанное количество осадков.
R24 - Количество осадков - Количество выпавших осадков за 24 часа, мм.
S - Снежный покров - Высота снежного покрова, см. При наведении курсора мыши на число - состояние снежного покрова и степень покрытия местности в баллах.